[[{"header":{"parameterUnit":"m.s-1","parameterCategory":1,"la1":30.2992,"la2":30.254,"lo1":-89.0895,"lo2":-89.0443,"dy":0.0025,"dx":0.0025,"nx":19,"ny":19,"refTime":"2026-05-05T03:00:00:Z","depth":0,"parameterNumber":2,"parameterNumberName":"U-component_of_WINDS"},"data":[0,0,0,0.0118,0.0118,0.0099,0.0099,0.0075,0.0075,0,0,0,0,0,0,0,0,0,0,0,0.0125,0.0125,0.0118,0.0117,0.0099,0.0099,0.0075,0.0075,0,0,0,0,0,0,0,0,0,0,0,0.0126,0.0125,0.0125,0.0117,0.0099,0.0099,0.0075,0.0089,0,0,0,0,0,0,0,0,0,0,0.0107,0.0116,0.0125,0.0125,0.0117,0.0099,0.0099,0.0089,0.0088,0.0084,0,0.0083,0,0.0079,0.0073,0.0073,0,0,0,0.0116,0.0118,0.0111,0.0125,0.0117,0.0099,0.0107,0.0089,0.0087,0.0082,0.0083,0.0082,0.0078,0.0073,0.0073,0.0059,0.0059,0,0,0.0117,0.0123,0.0112,0.011,0.0114,0.0107,0.0106,0.0088,0.0088,0.0083,0.0081,0.0078,0.0073,0.0073,0.0059,0.0059,0,0,0,0.0121,0.0124,0.0117,0.0111,0.0107,0.0107,0.0105,0.0089,0.0086,0.0081,0.0078,0.0073,0.0073,0.0059,0.0059,0.0066,0,0,0,0.0121,0.0126,0.0118,0.0122,0.0108,0.0098,0.0107,0.0087,0.0085,0.0078,0.0073,0.0073,0.0059,0.0059,0.0065,0.0067,0,0,0,0.0126,0.0127,0.0125,0.0122,0.0114,0.0098,0.0095,0.0087,0.0083,0.0073,0.0073,0.0059,0.0059,0.0065,0.0067,0.0064,0,0,0,0.0133,0.0132,0.0125,0.0123,0.0114,0.0103,0.0095,0.0086,0.0078,0.0073,0.0059,0.0059,0.0065,0.0067,0.0064,0.0063,0.0063,0,0,0.0135,0.0132,0.013,0.0124,0.0115,0.0105,0.0097,0.0084,0.0077,0.0065,0.0065,0.0065,0.0067,0.0064,0.0063,0.0064,0,0,0,0.0133,0.0132,0.0128,0.0121,0.0111,0.0102,0.0089,0.0084,0.0073,0.0073,0.0064,0.0065,0.0063,0.0062,0.0062,0.0059,0.0059,0.0059,0.0059,0.0146,0.0137,0.0132,0.0119,0.0112,0.0098,0.0091,0.0081,0.0075,0.0072,0.0069,0.0069,0.0068,0.0068,0.0065,0.0068,0.0068,0.0068,0.0068,0.0148,0.0144,0.0133,0.0124,0.0113,0.0105,0.009,0.0085,0.0075,0.0072,0.007,0.0067,0.0069,0.0066,0.0068,0.0068,0.0068,0.0068,0.0068,0.0155,0.0151,0.0144,0.0131,0.0121,0.0108,0.0098,0.0089,0.008,0.0078,0.0071,0.0071,0.0069,0.0075,0.0075,0.0075,0.0075,0.0075,0.0075,0.0164,0.0156,0.015,0.0137,0.0129,0.0119,0.0102,0.0094,0.0083,0.0077,0.0076,0.0068,0.0072,0.0072,0.0075,0.0075,0.0075,0.0075,0.0075,0.0169,0.0166,0.0155,0.0148,0.013,0.012,0.0107,0.0091,0.0083,0.0078,0.007,0.0074,0.007,0.007,0.007,0.0073,0.0073,0.0073,0.0073,0.0174,0.0171,0.0156,0.0145,0.0132,0.0119,0.0104,0.009,0.0075,0.0069,0.0067,0.0067,0.0067,0.0063,0.0063,0.0063,0.0064,0.0064,0.0064,0.0175,0.017,0.016,0.0146,0.0131,0.0117,0.0102,0.0087,0.007,0.0063,0.0063,0.0064,0.0063,0.0063,0.0057,0.0057,0.0057,0,0]},{"header":{"parameterUnit":"m.s-1","parameterCategory":1,"la1":30.2992,"la2":30.254,"lo1":-89.0895,"lo2":-89.0443,"dy":0.0025,"dx":0.0025,"nx":19,"ny":19,"refTime":"2026-05-05T03:00:00:Z","depth":0,"parameterNumber":3,"parameterNumberName":"V-component_of_WINDS"},"data":[0,0,0,5.1792,5.1794,5.1849,5.1849,5.1934,5.1935,0,0,0,0,0,0,0,0,0,0,0,5.1787,5.1788,5.1792,5.1794,5.1849,5.1849,5.1934,5.1935,0,0,0,0,0,0,0,0,0,0,0,5.1787,5.1788,5.1789,5.1794,5.1849,5.1849,5.1934,5.1886,0,0,0,0,0,0,0,0,0,0,5.183,5.1838,5.1788,5.1789,5.1795,5.1849,5.1849,5.1884,5.1889,5.1916,0,5.1945,0,5.1942,5.1942,5.1942,0,0,0,5.1785,5.1833,5.1838,5.179,5.1795,5.1849,5.1821,5.1887,5.1893,5.1924,5.1946,5.1949,5.1943,5.1943,5.1943,5.2129,5.213,0,0,5.1782,5.1803,5.1834,5.1842,5.1837,5.182,5.1823,5.189,5.1916,5.1947,5.1951,5.1944,5.1943,5.1944,5.2128,5.2129,0,0,0,5.1779,5.1802,5.1804,5.1839,5.1848,5.1822,5.1826,5.1913,5.1912,5.1951,5.1945,5.1944,5.1945,5.2126,5.2128,5.221,0,0,0,5.1777,5.18,5.1803,5.1817,5.1847,5.1882,5.1847,5.1907,5.1914,5.1945,5.1944,5.1946,5.2125,5.2127,5.2204,5.2244,0,0,0,5.178,5.18,5.1812,5.1818,5.1842,5.188,5.1883,5.1908,5.1911,5.1942,5.1946,5.2124,5.2127,5.22,5.2236,5.2296,0,0,0,5.1789,5.1886,5.1814,5.1919,5.1842,5.1931,5.1882,5.1948,5.1985,5.1944,5.2125,5.2128,5.2198,5.2232,5.2291,5.2348,5.2375,0,0,5.1923,5.1903,5.1963,5.19,5.2007,5.1921,5.204,5.2054,5.2038,5.2099,5.2103,5.2206,5.2236,5.2295,5.2522,5.2544,0,0,0,5.2013,5.2056,5.208,5.2116,5.2129,5.2141,5.2135,5.2139,5.219,5.2074,5.2245,5.2262,5.2296,5.2322,5.234,5.2366,5.2142,5.2142,5.2141,5.2233,5.2205,5.2301,5.228,5.2315,5.2306,5.2331,5.2335,5.2299,5.234,5.2357,5.2498,5.253,5.2543,5.257,5.2388,5.2388,5.2388,5.2388,5.2423,5.2478,5.2425,5.2499,5.2469,5.2531,5.2524,5.2496,5.2547,5.2484,5.2512,5.2443,5.2567,5.2589,5.2394,5.2393,5.2392,5.2392,5.2391,5.2561,5.2582,5.2586,5.2632,5.267,5.2645,5.2695,5.2667,5.2641,5.2669,5.2681,5.268,5.2671,5.2677,5.2678,5.2678,5.2679,5.2679,5.2679,5.2702,5.2703,5.2749,5.2768,5.2785,5.2803,5.2793,5.2809,5.2818,5.2793,5.2793,5.275,5.2586,5.2543,5.2687,5.2685,5.2685,5.2684,5.2683,5.29,5.285,5.2921,5.2938,5.2955,5.2992,5.2955,5.2988,5.2997,5.3022,5.2973,5.2857,5.2835,5.282,5.2784,5.2981,5.2981,5.2981,5.2981,5.3014,5.3,5.3063,5.3091,5.3115,5.3088,5.3165,5.3157,5.3141,5.3143,5.3111,5.3062,5.3049,5.3034,5.3014,5.298,5.3223,5.3223,5.3223,5.3132,5.3118,5.319,5.3173,5.3184,5.3192,5.3263,5.3295,5.3267,5.3233,5.3144,5.3134,5.3054,5.3031,5.2992,5.2963,5.29,0,0]}]]